TimeEDT,TemperatureF,Dew PointF,Humidity,Sea Level PressureIn,VisibilityMPH,Wind Direction,Wind SpeedMPH,Gust SpeedMPH,PrecipitationIn,Events,Conditions,WindDirDegrees,DateUTC
12:54 AM,48.9,44.1,83,30.00,10.0,SE,5.8,-,N/A,,Partly Cloudy,130,2012-10-10 04:54:00
1:54 AM,44.1,42.1,93,29.99,10.0,East,6.9,-,N/A,,Partly Cloudy,100,2012-10-10 05:54:00
2:54 AM,51.1,46.9,86,29.96,10.0,Variable,6.9,-,N/A,,Partly Cloudy,0,2012-10-10 06:54:00
3:54 AM,53.1,46.9,80,29.94,10.0,SE,6.9,-,N/A,,Partly Cloudy,140,2012-10-10 07:54:00
4:54 AM,50.0,46.0,86,29.93,10.0,ESE,6.9,-,N/A,,Partly Cloudy,110,2012-10-10 08:54:00
5:54 AM,51.1,46.0,83,29.92,10.0,ESE,3.5,-,N/A,,Partly Cloudy,110,2012-10-10 09:54:00
6:54 AM,50.0,46.9,89,29.91,10.0,Calm,Calm,-,N/A,,Overcast,0,2012-10-10 10:54:00
7:54 AM,52.0,48.9,89,29.89,10.0,East,3.5,-,N/A,,Overcast,90,2012-10-10 11:54:00
8:54 AM,57.0,48.0,72,29.87,10.0,South,9.2,-,N/A,,Overcast,190,2012-10-10 12:54:00
9:54 AM,57.9,48.0,70,29.85,10.0,SSW,11.5,17.3,N/A,,Overcast,200,2012-10-10 13:54:00
10:54 AM,60.1,46.0,60,29.82,10.0,SW,17.3,26.5,N/A,,Overcast,220,2012-10-10 14:54:00
11:54 AM,60.1,45.0,57,29.81,10.0,SSW,15.0,25.3,N/A,,Overcast,210,2012-10-10 15:54:00
12:54 PM,60.1,42.1,51,29.78,10.0,South,13.8,24.2,N/A,,Overcast,190,2012-10-10 16:54:00
1:54 PM,60.1,41.0,49,29.76,10.0,SSW,15.0,27.6,N/A,,Overcast,210,2012-10-10 17:54:00
2:54 PM,59.0,41.0,51,29.77,10.0,SW,11.5,24.2,0.00,Rain,Light Rain,230,2012-10-10 18:54:00
3:54 PM,53.1,46.9,80,29.81,10.0,West,13.8,-,0.00,Rain,Light Rain,260,2012-10-10 19:54:00
4:54 PM,52.0,44.1,74,29.82,10.0,West,13.8,-,0.01,,Mostly Cloudy,270,2012-10-10 20:54:00
5:54 PM,52.0,42.1,69,29.84,10.0,West,9.2,17.3,N/A,,Mostly Cloudy,260,2012-10-10 21:54:00
6:54 PM,50.0,37.9,63,29.86,10.0,West,10.4,-,N/A,,Scattered Clouds,270,2012-10-10 22:54:00
7:54 PM,48.0,39.0,71,29.88,10.0,WSW,10.4,-,N/A,,Scattered Clouds,250,2012-10-10 23:54:00
8:54 PM,45.0,37.0,74,29.88,10.0,SW,6.9,-,N/A,,Partly Cloudy,220,2012-10-11 00:54:00
9:54 PM,46.9,36.0,66,29.90,10.0,WSW,13.8,-,N/A,,Clear,250,2012-10-11 01:54:00
10:54 PM,46.9,35.1,63,29.92,10.0,WSW,18.4,-,N/A,,Partly Cloudy,250,2012-10-11 02:54:00
11:54 PM,46.9,34.0,61,29.93,10.0,WSW,16.1,25.3,N/A,,Scattered Clouds,250,2012-10-11 03:54:00